Dewpoint
56 41 42 44 43 43 36 35 28 36 32 31 26 27 29 28 28 27 32 27 34 40 43 44 47 46 44 46 44 43 43 43 49 43 49 59 62 60 62 61 64 64 64 66 67 68 69 70 70 69 69 68 68 67 70 70 70 70 70 70 70 70 70 70 68 68 67 67 66 65 63 63 63 65 64 64 63 64 64 66 65 65 64 65 65 66 66 65 65 65 65 65 64 64 64 63 63
46 43 43 40 42 40 36 30 31 28 31 26 27 22 27 30 31 30 26 35 44 43 45 44 47 46 48 48 45 44 44 51 52 54 58 60 61 61 62 63 63 63 65 66 66 67 68 68 71 69 68 68 67 67 68 70 70 70 70 70 70 70 70 70 68 68 67 66 65 63 63 63 63 63 64 64 64 64 64 63 64 65 65 64 66 65 65 65 64 65 64 64 64 63 63 62 62
46 43 40 37 37 37 28 29 28 29 29 25 24 28 28 26 29 31 32 40 44 47 46 46 48 49 47 46 45 44 47 51 53 58 58 61 58 62 63 63 63 64 64 66 66 66 67 68 70 69 68 68 67 67 68 68 70 70 70 70 69 70 70 70 68 67 66 64 64 64 63 63 62 64 64 63 63 65 66 65 64 63 63 65 65 65 65 66 65 65 65 65 65 63 62 62 62
50 48 42 38 37 35 31 28 29 26 28 25 24 25 27 28 30 34 40 44 47 47 47 46 45 49 47 45 48 45 43 54 56 58 59 59 57 62 63 63 65 64 65 66 65 67 67 69 70 69 68 67 67 66 66 67 68 70 68 68 68 70 70 70 68 67 66 65 64 64 63 63 64 65 66 66 65 64 64 63 65 64 64 65 64 64 64 64 64 64 64 64 64 63 62 62 62
45 46 42 40 36 35 35 33 26 26 24 24 23 25 25 30 32 36 44 47 47 46 46 46 43 50 50 48 47 45 49 55 56 57 58 59 61 62 63 64 64 64 65 64 65 67 69 69 70 69 68 67 66 66 66 66 67 66 68 67 67 66 66 68 69 67 66 65 65 65 65 65 65 64 64 63 63 63 65 65 64 64 64 64 64 63 64 64 63 63 64 63 64 63 62 61 61
41 41 44 41 35 33 30 28 25 23 26 24 25 25 24 30 33 40 44 45 48 48 48 47 46 48 47 44 50 45 53 51 57 58 59 59 60 62 63 65 63 63 64 65 65 67 68 68 70 69 68 67 66 65 65 65 65 65 65 67 66 66 66 66 66 66 67 65 64 65 66 66 65 64 63 62 62 63 64 64 64 62 62 64 64 64 64 64 63 63 63 64 64 63 63 62 61
42 39 38 38 36 35 35 31 26 25 24 22 27 26 26 30 37 41 43 44 46 46 47 46 46 43 38 51 51 53 56 57 58 58 60 61 62 62 63 63 63 63 63 64 65 66 69 68 69 68 69 67 66 65 65 65 65 65 65 65 66 66 67 66 65 65 64 63 64 66 67 67 67 65 64 63 63 63 64 62 63 64 64 63 62 63 63 63 63 63 63 63 63 62 62 62 61
48 39 38 34 38 35 35 33 29 26 24 24 24 28 31 34 38 39 40 38 41 42 44 44 47 43 44 46 45 55 56 58 58 59 60 61 62 63 64 62 62 62 63 64 65 68 70 68 69 69 69 67 66 65 66 65 65 66 66 65 65 65 66 66 65 64 64 66 67 68 68 68 67 65 64 63 63 62 63 63 63 62 62 63 63 62 62 63 63 63 63 63 63 62 61 62 62
39 38 44 38 37 39 34 32 30 25 25 24 25 31 44 39 38 38 37 40 41 38 38 42 43 39 45 41 39 54 55 57 58 60 59 61 63 64 62 61 61 63 64 65 65 69 69 68 69 69 70 68 66 66 66 66 65 66 65 65 65 65 66 66 65 65 66 67 68 68 68 68 66 66 65 64 65 65 64 62 63 63 63 63 63 63 63 63 62 63 63 63 63 63 62 62 62
39 39 38 40 40 36 35 34 30 27 24 24 29 30 34 39 39 38 38 36 36 33 40 44 45 37 41 37 45 52 57 58 59 60 60 61 63 63 62 62 62 63 65 65 65 67 68 70 68 69 70 68 68 68 67 66 66 65 65 65 64 65 65 65 64 65 65 66 68 68 68 68 67 66 65 66 66 64 63 62 64 64 63 62 62 62 62 62 62 62 62 63 62 62 62 63 63
39 38 43 40 39 36 37 34 32 27 25 24 27 35 37 40 38 35 38 36 36 32 45 46 38 35 37 37 43 57 59 59 59 60 61 61 64 62 62 62 63 64 64 66 66 66 68 68 70 67 69 68 69 69 68 67 66 66 65 65 65 65 65 65 66 66 65 65 65 67 68 68 68 67 67 66 65 64 64 64 64 63 62 62 62 63 62 62 62 62 63 63 63 62 63 63 63
39 40 43 40 39 37 36 35 31 28 24 25 27 35 40 39 39 36 33 30 31 32 35 38 44 38 35 34 46 56 58 58 60 61 61 63 63 63 62 62 64 64 65 66 66 66 67 68 68 69 66 67 68 68 68 69 67 66 66 65 65 65 66 67 67 66 66 65 66 65 66 67 68 67 67 66 66 65 65 65 64 63 63 63 63 63 62 62 62 62 63 62 62 62 62 62 62
41 43 39 39 38 38 37 33 32 28 26 23 30 35 41 40 37 33 32 32 33 31 32 36 44 38 37 35 49 55 56 58 60 61 61 62 62 62 63 62 64 64 65 66 66 66 67 67 66 67 67 65 65 66 67 68 68 67 66 67 68 68 68 67 66 65 64 66 66 66 66 67 67 67 67 66 66 65 65 64 64 63 63 62 63 62 62 61 62 62 62 62 62 61 62 62 62
42 43 40 39 40 38 37 36 34 30 29 26 32 39 40 39 36 34 32 30 30 30 42 40 39 42 33 24 40 47 56 60 60 61 61 62 63 63 63 64 65 64 66 66 66 66 66 66 65 66 68 68 67 66 65 66 67 67 67 67 69 68 68 68 68 68 67 68 68 68 68 68 67 67 66 66 66 65 66 65 63 63 63 63 62 63 62 62 62 63 63 64 63 63 62 63 63
41 42 40 41 38 37 38 37 36 34 33 30 36 39 40 41 39 37 31 30 35 41 42 46 43 39 30 25 40 56 58 60 61 61 62 62 64 63 64 64 65 66 65 65 65 65 64 65 65 66 66 66 66 66 66 67 64 66 67 67 68 68 68 68 68 67 67 67 66 66 66 65 65 65 66 66 66 66 65 65 66 65 63 63 63 63 62 63 63 63 64 64 64 64 63 63 63
43 39 40 40 38 37 37 37 37 34 33 32 37 40 39 40 39 37 34 38 38 41 37 36 47 38 33 23 46 52 59 61 61 62 62 63 63 64 64 65 64 64 65 65 65 65 65 65 65 65 65 65 65 66 65 66 64 64 66 66 67 67 67 67 66 65 65 64 64 64 63 64 64 64 63 64 64 64 64 63 64 64 63 63 62 62 62 63 64 64 64 63 64 64 64 64 63
44 41 37 38 37 38 38 36 36 35 32 31 35 38 36 36 39 38 38 39 34 37 37 42 39 44 36 47 52 52 59 61 61 62 61 61 62 62 63 64 64 64 65 65 65 64 65 64 65 65 65 64 64 65 64 65 68 64 64 64 64 65 65 65 64 61 60 60 61 61 63 64 64 64 65 64 63 64 61 62 65 65 64 63 63 63 62 63 64 64 63 63 63 63 62 62 63
45 39 38 38 38 38 38 36 35 33 33 31 34 35 33 32 37 37 38 37 35 39 36 39 44 45 42 51 53 55 59 61 61 61 60 60 60 59 61 62 63 62 63 64 64 64 63 64 65 64 64 64 64 64 64 65 68 65 64 66 67 65 63 62 63 65 65 64 59 63 63 60 60 61 63 64 64 64 62 60 61 63 64 64 64 64 62 63 64 64 63 62 62 61 60 61 59
44 41 39 37 38 36 34 33 33 32 30 27 30 33 33 30 33 36 33 32 34 36 36 38 40 39 42 51 53 53 58 61 61 60 60 60 60 59 59 60 61 61 61 62 63 63 63 63 64 63 64 64 64 64 64 65 66 64 63 63 64 64 65 65 65 64 64 64 64 63 60 58 58 59 63 64 64 59 61 59 61 62 62 62 63 63 63 63 63 62 62 62 61 60 62 60 57
44 43 40 38 39 36 34 33 32 31 28 27 27 29 32 32 32 37 33 30 34 32 31 36 37 37 41 48 52 53 56 59 61 61 60 60 60 59 59 58 59 60 59 61 61 62 62 62 63 63 63 63 64 63 64 63 64 64 62 63 62 64 65 65 64 64 63 63 63 61 56 57 58 58 63 63 63 63 61 58 59 60 59 59 60 61 61 62 62 61 61 60 60 60 58 56 55
43 42 40 40 38 37 36 34 32 29 29 28 27 29 29 31 32 35 33 30 32 33 31 32 34 31 36 45 51 53 53 58 61 61 60 60 60 59 58 58 58 59 60 59 61 61 61 62 62 63 63 63 64 64 63 62 63 62 63 62 62 62 64 64 63 64 64 63 63 60 59 59 60 58 61 62 62 63 62 62 61 62 61 61 57 61 60 63 60 60 58 58 59 57 56 55 56
42 40 41 41 38 38 35 33 29 27 25 27 27 27 28 31 32 33 32 30 28 29 29 30 31 31 33 47 51 53 51 55 56 59 59 59 59 58 58 58 58 59 59 58 59 60 62 61 62 63 63 63 63 63 62 62 63 62 62 62 61 61 63 63 62 63 63 63 63 62 60 60 60 59 57 59 60 60 61 61 62 62 60 60 60 59 57 58 56 58 58 57 56 57 56 55 55
40 40 40 41 39 38 32 31 26 26 27 28 29 28 28 28 28 30 31 31 30 33 32 35 36 38 41 46 49 52 52 53 55 57 58 58 58 58 57 57 57 58 59 59 59 59 60 61 62 63 63 63 63 63 62 62 62 62 62 62 62 61 61 62 61 62 62 62 63 63 61 60 60 59 57 57 58 58 59 59 59 60 60 58 59 57 56 56 55 56 56 57 56 56 57 57 56
41 40 41 40 40 39 36 29 25 25 26 27 25 26 25 27 28 29 31 31 32 32 31 30 30 37 41 45 49 49 50 52 54 54 56 57 58 58 58 57 58 58 59 58 59 59 60 60 61 62 63 63 63 62 62 61 62 62 61 61 62 61 61 61 61 61 61 62 63 61 60 60 56 56 57 56 57 58 58 58 59 59 58 57 58 57 55 55 55 54 56 56 56 57 56 56 56
41 41 42 39 38 40 37 33 31 29 28 26 25 25 27 27 27 28 28 29 30 32 32 30 31 31 32 36 45 46 47 50 52 54 56 56 57 58 59 58 58 59 59 59 60 59 59 60 60 61 61 62 62 62 62 61 61 62 62 62 63 62 62 62 62 61 60 60 61 61 61 57 55 55 56 55 55 57 58 59 59 58 57 58 58 56 55 55 54 53 54 54 55 56 54 56 56
42 42 42 41 38 39 38 35 35 32 34 30 30 32 33 28 28 25 26 27 28 29 33 33 34 34 34 34 35 42 44 47 51 52 54 56 57 57 58 58 59 58 58 59 60 60 59 59 60 60 61 61 62 62 62 62 62 62 61 62 62 63 63 63 63 61 60 59 59 60 60 58 57 56 56 56 56 56 56 57 57 57 56 58 58 57 54 54 53 52 53 54 55 56 55 55 55
41 42 42 41 39 38 36 37 36 34 35 32 34 37 37 30 26 31 31 29 30 28 29 29 31 33 34 34 36 37 40 43 48 51 53 56 57 57 58 59 59 58 59 59 59 59 60 60 60 60 60 62 62 62 62 62 62 62 62 62 62 63 63 63 63 62 61 59 58 59 59 59 58 57 56 57 57 57 57 56 56 57 57 57 57 56 54 54 53 52 52 52 54 55 54 56 55
41 41 42 40 37 37 36 37 37 33 34 34 33 34 35 32 30 31 34 29 30 28 28 28 32 31 29 30 32 39 39 40 43 49 51 54 56 57 57 58 59 59 58 59 59 60 60 59 59 60 60 61 61 61 62 62 62 62 62 62 61 63 63 63 63 62 61 60 60 59 59 59 58 57 58 57 57 57 56 56 56 56 56 55 56 55 54 54 53 53 53 54 55 56 55 55 55
41 39 38 38 38 38 37 37 37 35 37 34 33 33 34 34 32 34 34 34 31 30 30 30 31 32 32 33 33 37 41 40 41 47 49 50 54 56 56 57 58 58 58 58 59 60 59 59 59 59 60 61 61 60 61 62 62 62 62 62 62 63 63 63 63 62 62 61 61 60 60 60 58 57 57 58 58 57 56 55 55 54 54 54 55 55 55 55 53 53 54 56 56 56 55 55 57
40 40 40 39 38 37 38 39 39 35 38 35 36 37 38 38 37 36 36 35 35 33 33 33 33 32 32 33 33 34 40 43 43 48 49 49 49 52 54 55 56 58 58 58 59 59 59 60 60 60 61 61 61 60 59 61 61 62 62 62 62 62 62 63 62 62 62 62 61 61 60 60 59 58 58 57 56 56 57 56 56 55 54 54 55 55 55 54 53 54 53 54 53 53 53 54 54
40 41 41 40 38 37 40 39 39 36 38 36 37 37 38 39 40 40 38 35 35 35 35 34 36 36 36 36 34 36 38 43 43 46 49 49 48 49 53 53 55 57 58 59 59 59 59 59 60 59 61 61 61 61 60 60 60 61 62 62 62 63 63 62 62 62 62 62 61 61 61 60 60 59 58 56 56 56 57 57 57 56 56 55 54 54 54 53 54 53 52 53 52 52 52 53 54
42 40 38 41 40 38 38 40 37 37 36 37 37 38 39 40 40 41 38 36 36 37 37 37 38 38 38 38 37 35 36 38 41 42 44 47 48 49 53 53 53 55 56 57 59 59 59 59 60 60 60 61 62 61 61 61 60 61 61 61 62 63 63 62 62 62 62 62 62 61 61 61 61 60 59 58 56 56 57 57 56 57 58 57 55 54 54 53 53 55 54 53 51 52 53 52 54
42 41 39 40 41 39 39 39 39 40 39 38 37 38 39 38 39 40 40 37 37 38 39 39 39 39 39 38 38 37 36 36 38 39 44 45 47 49 51 52 53 53 55 56 57 59 60 59 60 60 60 60 61 61 62 61 61 60 61 61 62 63 63 63 62 62 62 62 62 61 61 61 61 61 60 60 58 56 57 57 56 57 57 57 57 55 56 55 55 56 53 53 54 52 53 54 53
41 42 39 41 40 39 38 39 41 43 42 37 37 38 39 40 39 39 39 39 38 38 38 38 39 39 39 40 39 38 37 37 37 38 38 42 45 45 48 52 52 52 54 55 56 58 59 59 60 61 61 60 61 61 61 61 61 61 61 61 61 62 63 63 63 63 62 62 62 61 61 61 61 61 61 60 60 56 56 57 57 57 57 58 57 56 57 55 54 53 53 54 54 54 52 53 53
40 40 40 41 40 42 40 39 40 41 41 39 39 37 39 40 41 41 39 39 39 39 40 40 40 39 39 39 39 38 39 39 39 39 40 40 41 45 47 51 53 53 52 54 55 56 58 59 60 61 61 61 61 61 61 61 61 60 60 61 62 62 62 63 63 62 62 62 61 61 61 61 60 61 61 60 60 58 56 57 57 57 57 56 56 57 56 55 55 54 54 54 54 55 53 52 52
39 40 40 40 38 38 38 40 40 40 39 39 40 39 37 38 39 40 40 40 38 38 39 39 40 40 39 39 40 40 41 40 41 42 43 42 43 43 46 49 51 54 52 53 55 56 57 58 59 60 61 60 60 60 61 61 60 59 60 60 61 61 62 62 62 62 62 61 61 61 61 61 61 60 61 61 60 59 56 56 57 57 57 56 56 56 56 55 55 55 55 55 54 54 55 54 53
40 40 43 38 38 37 38 38 39 40 39 39 39 40 39 39 39 38 39 39 39 39 38 38 39 40 41 41 40 41 42 41 47 46 46 46 47 45 46 47 50 52 54 53 55 56 56 57 58 59 60 60 60 60 60 60 59 59 59 59 59 60 61 62 62 62 61 61 61 61 61 61 61 61 61 61 60 59 57 56 56 56 57 56 56 56 56 55 55 55 55 54 54 54 54 55 56
39 37 39 38 38 36 36 36 39 38 39 38 39 38 38 38 39 39 39 39 39 39 39 39 38 39 40 40 41 42 41 44 45 45 44 45 46 48 46 47 47 49 52 53 54 56 56 56 57 58 59 60 60 60 60 59 59 59 59 58 58 59 60 61 61 61 61 61 61 61 61 61 61 61 60 60 60 60 59 57 56 56 56 56 56 57 56 55 55 56 55 54 55 54 54 55 55
42 38 37 37 36 38 36 37 39 38 39 38 38 37 36 37 38 38 38 39 39 39 39 39 39 39 40 40 41 41 42 42 42 42 44 43 47 49 47 47 47 47 49 52 54 56 56 56 57 57 58 59 60 59 60 59 59 60 59 59 58 58 60 61 61 61 61 61 61 61 61 61 60 60 60 60 60 59 59 58 57 56 56 56 56 57 56 56 56 56 55 54 54 55 54 55 55
42 38 36 36 37 35 34 37 38 38 38 36 36 36 36 36 37 37 37 37 38 40 40 40 40 40 40 40 40 41 41 42 42 42 42 42 45 45 48 47 47 48 48 48 50 54 55 56 57 57 57 58 59 60 59 60 60 60 60 59 60 59 59 59 60 61 60 60 60 61 61 61 60 60 60 60 60 60 59 58 57 57 57 57 56 55 55 56 56 56 55 55 54 53 54 53 55
41 40 37 35 34 34 32 33 37 38 38 38 37 36 35 35 35 35 35 36 37 38 38 39 40 42 42 44 44 43 42 42 42 42 43 43 43 44 45 48 48 48 49 49 49 51 53 54 56 57 57 57 58 59 59 59 60 60 60 60 60 59 58 58 59 59 59 59 59 60 60 60 60 60 60 60 60 60 60 59 58 57 57 57 57 55 55 55 55 56 55 55 54 52 53 53 54
40 40 38 36 34 32 35 35 36 34 33 37 36 32 30 30 32 33 32 33 33 36 37 37 39 39 40 40 42 43 46 45 44 43 43 44 44 45 46 46 48 49 47 50 50 50 52 54 55 57 57 57 58 59 59 59 59 59 59 59 57 57 57 57 57 57 58 58 59 60 60 60 60 60 60 59 59 59 59 60 59 58 58 57 57 56 55 55 56 55 55 55 55 55 51 53 53
40 37 38 37 36 34 33 35 37 33 29 31 36 31 28 28 26 25 28 32 32 32 35 38 38 37 38 39 40 40 41 42 46 46 45 45 45 45 46 46 48 47 47 48 50 51 51 53 55 57 57 57 58 59 59 59 59 60 60 58 58 58 57 57 57 58 58 59 59 59 60 60 60 60 59 59 59 59 59 59 60 59 58 58 57 57 56 56 56 56 56 56 55 55 54 51 52
35 44 43 37 36 35 35 36 36 34 34 35 36 35 31 31 30 29 27 26 29 32 37 37 36 36 35 35 35 36 38 38 42 44 45 45 45 45 44 44 44 45 47 48 49 49 51 52 54 56 57 57 58 59 59 59 58 59 60 59 58 58 58 57 58 57 58 58 59 59 59 59 60 60 60 59 59 59 59 58 59 59 59 59 58 58 57 57 57 57 57 56 55 54 55 52 50
42 44 44 42 38 37 38 37 37 36 35 32 33 38 33 32 33 33 31 29 29 30 31 34 35 35 34 34 34 37 38 39 39 43 45 45 45 45 44 44 45 45 47 48 48 49 51 52 54 55 56 57 57 59 59 59 59 59 59 59 59 58 58 58 58 58 58 58 59 59 59 59 59 60 60 60 59 59 59 58 59 59 59 59 58 59 58 58 58 57 57 56 56 55 55 54 51
46 46 44 44 44 43 41 41 39 40 38 33 34 33 31 30 33 32 33 31 29 28 28 27 30 34 35 34 35 35 35 37 41 42 43 43 43 44 45 44 45 46 48 50 48 49 50 52 53 54 55 56 57 58 59 59 59 58 59 59 59 59 58 58 58 58 58 59 58 59 59 59 59 59 60 60 60 60 59 58 59 59 59 59 58 59 59 58 58 58 58 57 57 57 55 54 54
46 47 45 45 44 43 43 43 40 38 33 34 35 34 32 28 32 30 31 33 32 31 28 28 34 35 33 33 34 37 33 35 40 44 43 44 44 42 43 42 43 45 50 49 50 49 49 50 51 53 54 55 56 58 59 59 59 58 58 59 59 59 59 59 58 58 58 58 58 58 59 59 59 59 60 60 60 60 60 59 59 59 59 59 58 59 58 58 58 57 57 58 58 58 56 55 55
46 44 43 41 39 41 39 37 39 33 31 36 36 34 33 29 30 33 31 31 32 31 28 28 29 31 33 34 33 34 34 35 40 40 41 42 43 44 45 44 43 44 45 47 50 51 49 49 50 51 53 54 55 57 58 58 58 59 58 58 59 59 59 59 58 58 58 58 58 58 58 59 58 59 59 59 60 60 60 59 59 59 59 59 59 59 59 58 58 57 57 56 56 57 57 56 55
45 43 42 34 30 34 30 34 30 32 31 33 34 35 33 31 30 31 32 31 31 32 31 29 28 28 29 30 32 33 37 38 40 41 44 46 45 45 45 45 45 47 48 47 48 50 50 49 48 49 51 52 54 56 58 58 58 58 58 58 58 58 59 59 59 58 58 58 58 58 58 58 58 58 58 58 59 60 59 59 59 59 58 59 59 59 59 58 58 58 58 57 57 56 56 56 55
42 39 37 32 29 29 27 30 31 31 35 36 33 36 32 32 31 33 32 32 33 33 33 34 33 33 33 33 35 33 40 40 42 43 45 47 48 48 47 46 46 46 46 48 49 48 49 49 48 48 49 50 52 54 56 58 58 58 58 58 58 58 57 59 59 58 58 58 58 58 58 58 58 58 58 59 59 59 59 59 59 59 59 59 58 59 59 59 59 58 58 58 57 56 56 56 55
39 39 37 34 30 29 26 29 28 30 30 32 36 34 32 30 31 31 32 33 34 34 34 35 36 36 37 37 38 37 38 37 41 43 45 45 46 46 47 48 48 48 47 48 47 47 48 47 48 47 47 48 50 52 55 57 57 58 58 58 58 58 57 57 58 59 58 58 58 58 58 58 57 58 58 59 59 60 59 59 59 59 59 59 59 59 59 59 59 58 58 58 57 57 57 56 55
39 40 40 36 33 37 31 32 31 31 31 31 33 33 35 30 32 33 32 32 32 33 34 34 33 33 36 37 38 38 37 38 41 43 45 45 46 47 48 48 47 47 46 47 46 47 49 47 47 47 47 47 49 50 53 56 57 57 57 57 58 58 57 57 57 58 57 58 58 58 58 58 58 58 58 59 60 60 60 59 59 59 59 59 59 58 58 58 59 58 58 58 58 58 58 57 56
40 41 35 36 47 41 33 32 34 33 32 29 32 33 34 34 33 33 33 33 31 31 31 30 31 34 35 36 39 38 38 41 44 46 45 45 45 46 48 45 45 44 45 46 46 46 46 47 47 46 46 47 48 49 50 53 56 57 57 57 57 58 57 57 57 57 57 58 58 58 58 58 58 58 58 59 60 60 60 59 59 59 59 59 59 58 58 58 58 58 58 58 57 58 58 57 57
41 35 39 43 45 45 36 29 32 31 27 29 32 31 30 31 29 32 31 30 31 31 31 31 31 32 33 38 40 41 43 44 44 43 43 43 44 45 46 45 43 43 43 42 42 43 45 47 46 45 45 45 46 48 49 51 54 56 57 57 57 58 58 58 58 57 57 57 58 57 58 58 58 59 58 60 60 60 60 58 59 59 58 58 58 58 58 58 59 58 58 58 58 58 58 57 57
41 39 44 37 31 31 35 31 26 25 25 26 29 29 29 30 29 28 26 28 29 29 30 30 29 31 34 35 38 40 41 43 44 42 43 45 46 46 45 43 41 42 42 42 43 43 44 44 45 45 44 45 45 47 48 51 52 55 57 57 57 58 58 58 58 58 57 57 58 58 58 58 59 59 58 59 60 60 60 59 59 59 59 58 58 58 58 58 58 58 58 58 58 58 57 57 57
43 44 43 44 42 36 32 31 31 29 26 25 26 28 26 31 27 26 27 28 28 26 26 28 28 28 29 30 32 34 41 41 42 41 43 45 44 43 42 42 41 41 42 43 43 45 44 43 43 43 43 44 44 45 46 48 52 53 55 56 57 57 58 58 58 58 58 57 58 58 58 58 58 58 58 59 59 59 59 59 59 59 59 58 58 58 58 58 58 58 58 58 58 58 57 57 57
38 39 38 40 36 42 42 35 32 29 26 25 25 24 25 26 25 25 26 25 25 24 24 27 29 30 30 31 32 36 38 41 43 44 42 42 42 41 41 41 43 42 44 45 45 43 43 43 43 43 43 43 44 45 46 48 50 52 53 55 57 57 58 58 58 58 58 58 58 58 58 58 58 58 58 59 59 59 59 59 59 58 58 58 58 58 58 58 58 58 58 57 57 57 57 57 57
35 33 34 35 34 32 30 28 36 32 29 27 25 24 27 26 24 23 24 26 27 28 28 30 31 28 30 33 34 33 37 36 39 41 40 42 41 42 41 42 43 43 45 45 46 45 44 43 43 43 43 44 44 45 46 48 50 53 54 54 55 57 58 58 58 58 58 58 58 58 58 58 58 58 58 58 58 59 58 58 58 58 58 57 57 57 58 58 58 58 57 58 58 57 57 56 57